| time (UTC) | temp C | wind direction | speed KPH | gust KPH | rain 1hr cm | rain 24hr cm | rain mn cm | humidity % | barometer mb |
| 20260506061542 | 13 | 258 | 0.0 | 0.0 | 0.00 | 0.00 | 0.00 | 1 | 1008.3 |
| 20260506050115 | 15 | 258 | 0.0 | 0.0 | 0.00 | 0.00 | 0.00 | 1 | 1008.1 |
| 20260506044525 | 15 | 258 | 0.0 | 0.0 | 0.00 | 0.00 | 0.00 | 1 | 1008.1 |
| 20260506043059 | 15 | 258 | 0.0 | 3.2 | 0.00 | 0.00 | 0.00 | 1 | 1007.8 |
| 20260506041535 | 16 | 258 | 0.0 | 0.0 | 0.00 | 0.00 | 0.00 | 1 | 1007.9 |
| 20260506040054 | 16 | 258 | 0.0 | 0.0 | 0.00 | 0.00 | 0.00 | 1 | 1007.6 |
| 20260506034526 | 16 | 258 | 0.0 | 3.2 | 0.00 | 0.00 | 0.00 | 1 | 1007.4 |
| 20260506033054 | 17 | 258 | 1.6 | 3.2 | 0.00 | 0.00 | 0.00 | 1 | 1007.3 |
| 20260506031517 | 17 | 258 | 0.0 | 0.0 | 0.00 | 0.00 | 0.00 | 1 | 1007.2 |
| 20260506030052 | 17 | 359 | 1.6 | 4.8 | 0.00 | 0.00 | 0.00 | 1 | 1006.9 |
| 20260506024529 | 18 | 258 | 1.6 | 4.8 | 0.00 | 0.00 | 0.00 | 1 | 1006.4 |
| 20260506023111 | 18 | 258 | 0.0 | 3.2 | 0.00 | 0.00 | 0.00 | 1 | 1005.8 |
| 20260506021519 | 19 | 258 | 1.6 | 3.2 | 0.00 | 0.00 | 0.00 | 1 | 1005.5 |
| 20260506020100 | 20 | 258 | 0.0 | 3.2 | 0.00 | 0.00 | 0.00 | 1 | 1005.5 |
| 20260506014522 | 20 | 258 | 0.0 | 1.6 | 0.00 | 0.00 | 0.00 | 1 | 1004.7 |
| 20260506013105 | 20 | 258 | 0.0 | 3.2 | 0.00 | 0.00 | 0.00 | 1 | 1004.8 |
| 20260506011527 | 21 | 258 | 0.0 | 3.2 | 0.00 | 0.00 | 0.00 | 1 | 1004.3 |
| 20260506010106 | 21 | 258 | 0.0 | 3.2 | 0.00 | 0.00 | 0.00 | 1 | 1003.5 |
| 20260506004535 | 22 | 258 | 0.0 | 3.2 | 0.00 | 0.00 | 0.00 | 1 | 1003.8 |
| 20260506003002 | 22 | 258 | 0.0 | 3.2 | 0.00 | 0.00 | 0.00 | 1 | 1003.8 |
| 20260506001547 | 22 | 258 | 0.0 | 3.2 | 0.00 | 0.00 | 0.00 | 4 | 1003.5 |
| 20260506000007 | 22 | 258 | 1.6 | 4.8 | 0.00 | 0.00 | 0.00 | 15 | 1003.3 |
| 20260505234547 | 23 | 258 | 1.6 | 4.8 | 0.00 | 0.00 | 0.00 | 18 | 1003.1 |
| 20260505233021 | 25 | 258 | 1.6 | 4.8 | 0.00 | 0.00 | 0.00 | 30 | 1002.7 |
| 20260505231532 | 25 | 211 | 1.6 | 4.8 | 0.00 | 0.00 | 0.00 | 39 | 1002.7 |
| 20260505230123 | 26 | 201 | 1.6 | 3.2 | 0.00 | 0.00 | 0.00 | 42 | 1002.4 |
| 20260505224530 | 27 | 201 | 0.0 | 3.2 | 0.00 | 0.00 | 0.00 | 49 | 1002.2 |
| 20260505223007 | 27 | 201 | 0.0 | 3.2 | 0.00 | 0.00 | 0.00 | 53 | 1001.9 |
| 20260505221555 | 28 | 201 | 0.0 | 3.2 | 0.00 | 0.00 | 0.00 | 53 | 1001.5 |
| 20260505220023 | 28 | 201 | 0.0 | 3.2 | 0.00 | 0.00 | 0.00 | 53 | 1001.5 |
| 20260505214552 | 30 | 199 | 0.0 | 3.2 | 0.00 | 0.00 | 0.00 | 49 | 1001.6 |
| 20260505213016 | 30 | 228 | 1.6 | 9.7 | 0.00 | 0.00 | 0.00 | 52 | 1001.6 |
| 20260505211603 | 31 | 175 | 0.0 | 3.2 | 0.00 | 0.00 | 0.00 | 48 | 1001.7 |
| 20260505210032 | 30 | 175 | 0.0 | 4.8 | 0.00 | 0.00 | 0.00 | 47 | 1002.0 |
| 20260505204606 | 30 | 202 | 0.0 | 6.4 | 0.00 | 0.00 | 0.00 | 46 | 1002.2 |
| 20260505203022 | 29 | 192 | 0.0 | 4.8 | 0.00 | 0.00 | 0.00 | 49 | 1002.2 |
| 20260505201608 | 30 | 199 | 0.0 | 6.4 | 0.00 | 0.00 | 0.00 | 43 | 1002.4 |
| 20260505200024 | 30 | 229 | 0.0 | 8.0 | 0.00 | 0.00 | 0.00 | 49 | 1002.4 |
| 20260505194554 | 30 | 203 | 0.0 | 8.0 | 0.00 | 0.00 | 0.00 | 51 | 1002.5 |
| 20260505193018 | 30 | 206 | 0.0 | 4.8 | 0.00 | 0.00 | 0.00 | 46 | 1002.4 |
| 20260505191608 | 28 | 182 | 0.0 | 4.8 | 0.00 | 0.00 | 0.00 | 42 | 1002.5 |
| 20260505190018 | 28 | 203 | 0.0 | 6.4 | 0.00 | 0.00 | 0.00 | 43 | 1002.3 |
| 20260505184559 | 28 | 193 | 0.0 | 3.2 | 0.00 | 0.00 | 0.00 | 38 | 1002.6 |
| 20260505183024 | 28 | 260 | 1.6 | 6.4 | 0.00 | 0.00 | 0.00 | 31 | 1002.6 |
| 20260505181556 | 27 | 143 | 0.0 | 4.8 | 0.00 | 0.00 | 0.00 | 12 | 1002.8 |
| 20260505180020 | 27 | 211 | 1.6 | 8.0 | 0.00 | 0.00 | 0.00 | 13 | 1002.7 |
| 20260505174603 | 27 | 231 | 1.6 | 9.7 | 0.00 | 0.00 | 0.00 | 4 | 1002.7 |
| 20260505173033 | 26 | 227 | 0.0 | 6.4 | 0.00 | 0.00 | 0.00 | 1 | 1002.7 |
| 20260505171607 | 25 | 117 | 0.0 | 9.7 | 0.00 | 0.00 | 0.00 | 1 | 1002.8 |
| 20260505170030 | 25 | 102 | 0.0 | 6.4 | 0.00 | 0.00 | 0.00 | 1 | 1003.0 |
| 20260505164602 | 25 | 110 | 0.0 | 4.8 | 0.00 | 0.00 | 0.00 | 1 | 1002.8 |
| 20260505163019 | 25 | 93 | 0.0 | 3.2 | 0.00 | 0.00 | 0.00 | 1 | 1002.4 |
| 20260505161608 | 25 | 177 | 0.0 | 4.8 | 0.00 | 0.00 | 0.00 | 1 | 1003.0 |
| 20260505153022 | 24 | 163 | 0.0 | 6.4 | 0.00 | 0.00 | 0.00 | 1 | 1002.3 |
| 20260505151602 | 24 | 249 | 0.0 | 4.8 | 0.00 | 0.00 | 0.00 | 1 | 1002.6 |
| 20260505124510 | 22 | 78 | 1.6 | 6.4 | 0.00 | 0.00 | 0.00 | 1 | 1002.2 |
| 20260505123039 | 22 | 181 | 0.0 | 4.8 | 0.00 | 0.00 | 0.00 | 1 | 1002.2 |
| 20260505121506 | 22 | 41 | 0.0 | 4.8 | 0.00 | 0.00 | 0.00 | 1 | 1002.0 |
| 20260505120041 | 22 | 202 | 0.0 | 3.2 | 0.00 | 0.00 | 0.00 | 1 | 1001.8 |
| 20260505114508 | 21 | 111 | 0.0 | 4.8 | 0.00 | 0.00 | 0.00 | 1 | 1001.8 |
| 20260505113051 | 21 | 103 | 0.0 | 3.2 | 0.00 | 0.00 | 0.00 | 1 | 1001.8 |
| 20260505111508 | 22 | 122 | 0.0 | 3.2 | 0.00 | 0.00 | 0.00 | 1 | 1001.7 |
| 20260505101532 | 22 | 191 | 0.0 | 4.8 | 0.00 | 0.00 | 0.00 | 1 | 1001.7 |
| 20260505094530 | 21 | 203 | 0.0 | 8.0 | 0.00 | 0.00 | 0.00 | 1 | 1001.8 |
| 20260505093106 | 21 | 74 | 0.0 | 4.8 | 0.00 | 0.00 | 0.00 | 1 | 1001.8 |
| 20260505091533 | 21 | 97 | 0.0 | 8.0 | 0.00 | 0.00 | 0.00 | 1 | 1002.1 |
| 20260505090104 | 21 | 126 | 0.0 | 14.5 | 0.00 | 0.00 | 0.00 | 1 | 1002.1 |
| 20260505084515 | 22 | 79 | 0.0 | 3.2 | 0.00 | 0.00 | 0.00 | 1 | 1002.1 |
| 20260505083058 | 22 | 74 | 0.0 | 3.2 | 0.00 | 0.00 | 0.00 | 1 | 1002.2 |
| 20260505081511 | 22 | 201 | 0.0 | 4.8 | 0.00 | 0.00 | 0.00 | 1 | 1002.1 |
| 20260505080052 | 22 | 159 | 0.0 | 4.8 | 0.00 | 0.00 | 0.00 | 1 | 1002.3 |
| 20260505074518 | 22 | 216 | 0.0 | 4.8 | 0.00 | 0.00 | 0.00 | 1 | 1002.4 |
| 20260505073059 | 22 | 219 | 0.0 | 4.8 | 0.00 | 0.00 | 0.00 | 1 | 1002.7 |
| 20260505071522 | 22 | 312 | 0.0 | 3.2 | 0.00 | 0.00 | 0.00 | 1 | 1002.9 |